Regional Weather Roundup
Issued by NWS

Home | Current Version | Previous Version | Text Only | Print | Product List | Glossary Off
Versions: 1 2 3 4 5 6 7 8 9 10 11 12 13 14 15 16 17 18 19 20 21 22 23 24 25 26 27 28 29 30 31 32 33 34 35 36 37 38 39 40 41 42 43 44 45 46 47 48 49 50

000
ASUS43 KLMK 011502
RWRKY
KENTUCKY REGIONAL WEATHER ROUNDUP
NATIONAL WEATHER SERVICE LOUISVILLE KY
1100 AM EDT SUN MAY 01 2016

NOTE "FAIR" INDICATES FEW OR NO CLOUDS BELOW 12,000 FEET
WITH NO SIGNIFICANT WEATHER AND/OR OBSTRUCTIONS TO VISIBILITY.

KYZ001>023-026-027-061>063-070>075-011600-
WESTERN AND SOUTH CENTRAL KENTUCKY

CITY           SKY/WX    TMP DP  RH WIND       PRES   REMARKS
PADUCAH        CLOUDY    71  65  81 VRB6      29.90S
HENDERSON      SUNNY     72  59  64 S7        29.90S
OWENSBORO      PTSUNNY   73  65  76 S9        29.92S
HOPKINSVILLE   NOT AVBL
BOWLING GREEN  CLOUDY    70  65  84 SW8       29.95S
GLASGOW        NOT AVBL
$$

KYZ024-025-028>034-038-045-046-053-011600-
NORTH CENTRAL KENTUCKY

CITY           SKY/WX    TMP DP  RH WIND       PRES   REMARKS
LOUISVILLE/SDF MOSUNNY   73  64  73 SE8       29.91F
LOUISVILLE/LOU MOSUNNY   72  65  78 S5        29.92F
FORT KNOX      NOT AVBL
$$

KYZ035>037-039>044-047>052-055>060-089>105-011600-
NORTHEAST KENTUCKY

CITY           SKY/WX    TMP DP  RH WIND       PRES   REMARKS
LEXINGTON      PTSUNNY   70  63  78 SW10      29.95F
COVINGTON      PTSUNNY   71  63  75 S8        29.94R
FRANKFORT      PTSUNNY   70  64  81 SW6       29.93F
$$

KYZ054-064>069-076>088-106>120-011600-
SOUTHEAST KENTUCKY

CITY           SKY/WX    TMP DP  RH WIND       PRES   REMARKS
JACKSON        CLOUDY    65  62  90 CALM      30.00F
LONDON         CLOUDY    71  63  75 SW12      29.99F
SOMERSET       NOT AVBL
MIDDLESBORO    NOT AVBL
MONTICELLO     SUNNY     74  66  76 SW12G22   29.99F
$$





USA.gov is the U.S. government's official web portal to all federal, state and local government web resources and services.